CAPE
0 0 0 0 0 0 0 0 0 0 0 0 0 0 0 0 0 0 0 0 0 0 0 0 0 0 0 0 0 0 0 0 0 0 0 0 0 0 0 0 0 0 0 0
0 0 0 0 0 0 0 0 0 0 0 0 0 0 0 0 0 0 0 0 0 0 0 0 0 0 0 0 0 0 0 0 0 0 0 0 0 0 0 0 0 0 0 0
0 0 0 0 0 0 0 0 0 0 0 0 0 0 0 0 0 0 0 0 0 0 0 0 0 0 0 0 0 0 0 0 0 0 0 0 0 0 0 0 0 0 0 0
0 0 0 0 0 0 0 0 0 0 0 0 0 0 0 0 0 0 0 0 0 0 0 0 0 0 0 0 0 0 0 0 0 0 0 0 0 0 0 0 0 0 0 0
0 0 0 0 0 0 0 0 0 0 0 0 0 0 0 0 0 0 0 0 0 0 0 0 0 0 0 0 0 0 0 0 0 0 0 0 0 0 0 0 0 0 0 0
0 0 0 0 0 0 0 0 0 0 0 0 0 0 0 0 0 0 0 0 0 0 0 0 0 0 0 0 0 0 0 0 0 0 0 0 0 0 0 0 0 0 0 0
0 0 0 0 0 0 0 0 0 0 0 0 0 0 0 0 0 0 0 0 0 0 0 0 0 0 0 0 0 0 0 0 0 0 0 0 0 0 0 0 0 0 0 0
0 0 0 0 0 0 0 0 0 0 0 0 0 0 0 0 0 0 0 0 0 0 0 0 0 0 0 0 0 0 0 0 0 0 0 0 0 0 0 0 0 0 0 0
0 0 0 0 0 0 0 0 0 0 0 0 0 0 0 0 0 0 0 0 0 0 0 0 0 0 0 0 0 0 0 0 0 0 0 0 0 0 0 0 0 0 0 0
0 0 0 0 0 0 0 0 0 0 0 0 0 0 0 0 0 0 0 0 0 0 0 0 0 0 0 0 0 0 0 0 0 0 0 0 0 0 0 0 0 0 0 0
0 0 0 0 0 0 0 0 0 0 0 0 0 0 0 0 0 0 0 0 0 0 0 0 0 0 0 0 0 0 0 0 0 0 0 0 0 0 0 0 0 0 0 0
0 0 0 0 0 0 0 0 0 0 0 0 0 0 0 0 0 0 0 0 0 0 0 0 0 0 0 0 0 0 0 0 0 0 0 0 0 0 0 0 0 0 0 0
0 0 0 0 0 0 0 0 0 0 0 0 0 0 0 0 0 0 0 0 0 0 0 0 0 0 0 0 0 0 0 0 0 0 0 0 0 0 0 0 0 0 0 0
0 0 0 0 0 0 0 0 0 0 0 0 0 0 0 0 0 0 0 0 0 0 0 0 0 0 0 0 0 0 0 0 0 0 0 0 0 0 0 0 0 0 0 0
0 0 0 0 0 0 0 0 0 0 0 0 0 0 0 0 0 0 0 0 0 0 0 0 0 0 0 0 0 0 0 0 0 0 0 0 0 0 0 0 0 0 0 0
0 0 0 0 0 0 0 0 0 0 0 0 0 0 0 0 0 0 0 0 0 0 0 0 0 0 0 0 0 0 0 0 0 0 0 0 0 0 0 0 0 0 0 0
0 0 0 0 0 0 0 0 0 0 0 0 0 0 0 0 0 0 0 0 0 0 0 0 0 0 0 0 0 0 0 0 0 0 0 0 0 0 0 0 0 0 0 0
0 0 0 0 0 0 0 0 0 0 0 0 0 0 0 0 0 0 0 0 0 0 0 0 0 0 0 0 0 0 0 0 0 0 0 0 0 0 0 0 0 0 0 0
0 0 0 0 0 0 0 0 0 0 0 0 0 0 0 0 0 0 0 0 0 0 0 0 0 0 0 0 0 0 0 0 0 0 0 0 0 0 0 0 0 0 0 0
0 0 0 0 0 0 0 0 0 0 0 0 0 0 0 0 0 0 0 0 0 0 0 0 0 0 0 0 0 0 0 0 0 0 0 0 0 0 0 0 0 0 0 0
0 0 0 0 0 0 0 0 0 0 0 0 0 0 0 0 0 0 0 0 0 0 0 0 0 0 0 0 0 0 0 0 0 0 0 0 0 0 0 0 0 0 0 0
0 0 0 0 0 0 0 0 0 0 0 0 0 0 0 0 0 0 0 0 0 0 0 0 0 0 0 0 0 0 0 0 0 0 0 0 0 0 0 0 0 0 0 0
0 0 0 0 0 0 0 0 0 0 0 0 0 0 0 0 0 0 0 0 0 0 0 0 0 0 0 0 0 0 0 0 0 0 0 0 0 0 0 0 0 0 0 0
0 0 0 0 0 0 0 0 0 0 0 0 0 0 0 0 0 0 0 0 0 0 0 0 0 0 0 0 0 0 0 0 0 0 0 0 0 0 0 0 0 0 0 0
0 0 0 0 0 0 0 0 0 0 0 0 0 0 0 0 0 0 0 0 0 0 0 0 0 0 0 0 0 0 0 0 0 0 0 0 0 0 0 0 0 0 0 0
0 0 0 0 0 0 0 0 0 0 0 0 0 0 0 0 0 0 0 0 0 0 0 0 0 0 0 0 0 0 0 0 0 0 0 0 0 0 0 0 0 0 0 0
CIN
0 0 0 0 0 0 0 0 0 0 0 0 0 0 0 0 0 0 0 0 0 0 0 0 0 0 0 0 0 0 0 0 0 0 0 0 0 0 0 0 0 0 0 0
0 0 0 0 0 0 0 0 0 0 0 0 0 0 0 0 0 0 0 0 0 0 0 0 0 0 0 0 0 0 0 0 0 0 0 0 0 0 0 0 0 0 0 0
0 0 0 0 0 0 0 0 0 0 0 0 0 0 0 0 0 0 0 0 0 0 0 0 0 0 0 0 0 0 0 0 0 0 0 0 0 0 0 0 0 0 0 0
0 0 0 0 0 0 0 0 0 0 0 0 0 0 0 0 0 0 0 0 0 0 0 0 0 0 0 0 0 0 0 0 0 0 0 0 0 0 0 0 0 0 0 0
0 0 0 0 0 0 0 0 0 0 0 0 0 0 0 0 0 0 0 0 0 0 0 0 0 0 0 0 0 0 0 0 0 0 0 0 0 0 0 0 0 0 0 0
0 0 0 0 0 0 0 0 0 0 0 0 0 0 0 0 0 0 0 0 0 0 0 0 0 0 0 0 0 0 0 0 0 0 0 0 0 0 0 0 0 0 0 0
0 0 0 0 0 0 0 0 0 0 0 0 0 0 0 0 0 0 0 0 0 0 0 0 0 0 0 0 0 0 0 0 0 0 0 0 0 0 0 0 0 0 0 0
0 0 0 0 0 0 0 0 0 0 0 0 0 0 0 0 0 0 0 0 0 0 0 0 0 0 0 0 0 0 0 0 0 0 0 0 0 0 0 0 0 0 0 0
0 0 0 0 0 0 0 0 0 0 0 0 0 0 0 0 0 0 0 0 0 0 0 0 0 0 0 0 0 0 0 0 0 0 0 0 0 0 0 0 0 0 0 0
0 0 0 0 0 0 0 0 0 0 0 0 0 0 0 0 0 0 0 0 0 0 0 0 0 0 0 0 0 0 0 0 0 0 0 0 0 0 0 0 0 0 0 0
0 0 0 0 0 0 0 0 0 0 0 0 0 0 0 0 0 0 0 0 0 0 0 0 0 0 0 0 0 0 0 0 0 0 0 0 0 0 0 0 0 0 0 0
0 0 0 0 0 0 0 0 0 0 0 0 0 0 0 0 0 0 0 0 0 0 0 0 0 0 0 0 0 0 0 0 0 0 0 0 0 0 0 0 0 0 0 0
0 0 0 0 0 0 0 0 0 0 0 0 0 0 0 0 0 0 0 0 0 0 0 0 0 0 0 0 0 0 0 0 0 0 0 0 0 0 0 0 0 0 0 0
0 0 0 0 0 0 0 0 0 0 0 0 0 0 0 0 0 0 0 0 0 0 0 0 0 0 0 0 0 0 0 0 0 0 0 0 0 0 0 0 0 0 0 0
0 0 0 0 0 0 0 0 0 0 0 0 0 0 0 0 0 0 0 0 0 0 0 0 0 0 0 0 0 0 0 0 0 0 0 0 0 0 0 0 0 0 0 0
0 0 0 0 0 0 0 0 0 0 0 0 0 0 0 0 0 0 0 0 0 0 0 0 0 0 0 0 0 0 0 0 0 0 0 0 0 0 0 0 0 0 0 0
0 0 0 0 0 0 0 0 0 0 0 0 0 0 0 0 0 0 0 0 0 0 0 0 0 0 0 0 0 0 0 0 0 0 0 0 0 0 0 0 0 0 0 0
0 0 0 0 0 0 0 0 0 0 0 0 0 0 0 0 0 0 0 0 0 0 0 0 0 0 0 0 0 0 0 0 0 0 0 0 0 0 0 0 0 0 0 0
0 0 0 0 0 0 0 0 0 0 0 0 0 0 0 0 0 0 0 0 0 0 0 0 0 0 0 0 0 0 0 0 0 0 0 0 0 0 0 0 0 0 0 0
0 0 0 0 0 0 0 0 0 0 0 0 0 0 0 0 0 0 0 0 0 0 0 0 0 0 0 0 0 0 0 0 0 0 0 0 0 0 0 0 0 0 0 0
0 0 0 0 0 0 0 0 0 0 0 0 0 0 0 0 0 0 0 0 0 0 0 0 0 0 0 0 0 0 0 0 0 0 0 0 0 0 0 0 0 0 0 0
0 0 0 0 0 0 0 0 0 0 0 0 0 0 0 0 0 0 0 0 0 0 0 0 0 0 0 0 0 0 0 0 0 0 0 0 0 0 0 0 0 0 0 0
0 0 0 0 0 0 0 0 0 0 0 0 0 0 0 0 0 0 0 0 0 0 0 0 0 0 0 0 0 0 0 0 0 0 0 0 0 0 0 0 0 0 0 0
0 0 0 0 0 0 0 0 0 0 0 0 0 0 0 0 0 0 0 0 0 0 0 0 0 0 0 0 0 0 0 0 0 0 0 0 0 0 0 0 0 0 0 0
0 0 0 0 0 0 0 0 0 0 0 0 0 -3 0 0 0 0 0 0 0 0 0 0 0 0 0 0 0 0 0 0 0 0 0 0 0 0 0 0 0 0 0 0
0 0 0 0 0 0 0 0 0 0 0 0 0 0 0 0 0 0 0 0 0 0 0 0 0 0 0 0 0 0 0 0 0 0 0 0 0 0 0 0 0 0 0 0
Wind_Speed
15 16 18 16 17 16 18 22 26 25 24 31 26 36 38 31 27 25 19 18 15 13 11 10 11 12 14 16 19 22 23 22 22 24 25 25 28 27 29 28 29 29 28 29
16 17 16 16 17 18 20 24 27 26 23 31 31 38 28 25 25 21 16 13 12 12 11 11 12 14 16 20 23 26 23 22 20 20 20 22 25 24 29 28 29 28 28 28
17 16 15 16 18 20 21 24 26 27 30 25 31 26 21 20 21 19 16 14 13 13 13 13 15 18 21 24 27 29 25 20 18 17 20 22 25 26 28 29 30 30 29 27
15 15 16 17 19 20 24 20 23 26 29 29 24 28 20 20 18 17 16 14 14 14 14 15 16 20 24 27 29 23 20 19 18 17 19 23 30 31 29 31 30 31 27 27
17 16 17 18 19 19 22 21 23 22 25 25 20 22 19 19 17 15 14 14 15 15 15 17 20 24 27 29 28 25 23 22 20 18 18 23 31 32 32 31 31 29 27 27
15 15 16 17 17 18 19 21 22 22 22 24 20 21 21 17 16 13 12 13 14 15 16 19 23 25 27 28 29 27 26 25 23 20 19 27 33 34 35 32 31 30 28 26
18 18 18 18 19 19 20 20 25 24 22 22 19 22 20 17 15 8 10 12 13 15 18 19 22 25 26 28 30 29 27 29 27 24 26 33 35 34 31 30 30 29 28 26
18 22 17 16 17 18 18 18 20 24 22 23 20 18 17 16 13 11 10 11 14 15 18 21 23 25 27 29 31 31 31 33 32 32 35 34 34 33 31 29 28 28 27 26
16 18 16 16 16 16 17 19 16 20 21 21 17 18 17 14 13 11 10 13 15 17 19 22 23 26 29 31 34 34 35 37 37 36 38 39 38 36 32 30 28 27 26 25
17 20 17 17 16 17 16 14 18 18 19 20 19 16 9 8 7 10 12 13 16 19 21 22 24 28 31 33 35 37 37 37 38 39 40 40 40 36 33 32 30 28 27 26
16 17 18 17 16 15 15 16 17 17 15 27 24 21 15 7 7 11 12 14 18 21 23 24 26 30 35 36 36 37 39 40 41 41 41 41 40 39 35 32 30 28 26 24
16 16 18 18 19 18 17 17 14 26 27 28 27 24 18 6 8 13 11 15 19 24 26 26 29 34 38 38 38 40 40 41 41 42 41 41 39 38 38 36 33 30 27 25
15 19 24 23 21 19 19 16 16 20 24 15 3 21 21 12 12 18 11 18 24 27 28 28 32 36 39 40 41 42 42 41 42 42 42 41 41 41 41 39 35 33 32 29
17 20 27 28 28 22 25 21 15 9 23 17 10 18 21 14 14 18 18 21 25 29 28 30 34 38 40 41 41 42 42 41 42 43 42 41 42 41 41 39 38 37 36 34
19 28 26 32 34 33 34 27 11 12 14 17 37 16 25 17 16 21 20 23 27 29 30 33 36 40 41 43 43 43 42 42 42 42 42 42 41 41 41 40 40 39 38 37
21 28 28 34 32 30 38 31 21 17 18 23 42 42 31 23 21 23 22 24 27 28 31 35 39 42 43 43 44 42 42 42 41 41 41 41 41 41 41 41 41 40 40 39
22 25 28 32 28 34 40 34 19 22 21 19 21 23 23 23 16 15 19 24 25 29 34 38 42 44 43 43 42 43 42 41 40 39 39 40 41 41 41 41 41 41 41 40
23 23 26 32 32 33 26 22 26 26 25 20 24 25 24 21 18 19 21 23 27 32 37 39 41 41 41 40 40 40 40 39 39 39 39 40 41 42 42 42 42 42 41 41
20 21 27 30 31 36 35 26 25 25 29 25 24 24 21 19 21 22 19 23 28 34 36 38 38 38 38 38 39 39 39 39 39 40 40 41 41 41 42 42 42 42 42 41
19 21 25 30 34 36 29 25 22 25 37 26 22 20 21 23 33 31 21 28 33 35 37 38 37 36 37 38 38 38 39 39 39 40 41 41 41 41 42 42 42 42 42 42
22 24 24 28 33 35 29 27 22 31 34 23 23 26 27 31 31 30 30 34 36 39 40 36 37 37 36 36 37 39 39 40 39 39 40 40 40 41 41 41 41 42 43 42
24 25 27 27 33 42 24 23 28 28 26 30 33 33 34 33 33 34 36 40 43 43 42 37 39 38 35 36 37 40 42 39 39 40 40 41 41 40 40 41 42 42 42 43
32 26 31 26 31 29 25 28 27 28 33 35 36 36 34 34 38 38 40 42 44 44 39 38 38 38 37 36 36 40 41 41 41 41 42 42 41 41 40 42 43 44 42 43
29 28 34 36 34 35 33 29 32 35 41 41 39 38 36 38 37 40 43 44 44 39 38 37 37 39 40 38 36 37 39 39 40 42 43 42 42 43 41 40 40 41 43 44
33 36 38 42 39 40 34 35 42 42 42 42 38 35 35 36 39 40 41 40 38 36 35 35 36 37 38 36 37 38 37 39 41 42 42 42 42 43 44 43 42 43 41 41
37 42 43 49 42 46 47 42 43 48 46 41 36 36 35 35 39 38 37 36 35 35 35 35 36 37 39 39 41 39 38 40 42 44 44 44 44 45 46 47 50 44 43 44
Wind_Direction
269 266 268 280 290 295 299 298 298 307 319 314 319 311 313 323 332 328 328 324 337 352 0 0 360 358 355 347 335 330 339 349 350 345 345 348 339 352 324 331 336 333 341 344
269 268 279 291 295 298 301 300 301 312 324 318 317 308 320 331 334 339 346 354 356 359 4 0 356 351 337 317 310 320 343 351 355 355 357 356 350 353 322 331 333 341 341 347
269 279 293 294 298 298 304 303 306 310 319 328 318 320 329 336 344 353 358 2 1 360 357 354 342 321 298 289 296 318 342 352 355 360 357 353 348 336 329 333 333 334 343 349
286 292 294 298 299 305 300 318 317 317 319 314 329 316 330 334 340 351 354 1 4 0 355 349 336 311 296 298 321 350 357 357 356 1 358 349 324 305 326 327 333 336 348 348
285 292 295 298 305 313 310 320 319 322 321 322 326 322 329 333 339 344 355 4 357 352 344 332 314 301 307 318 332 344 350 352 354 1 1 347 306 309 319 327 330 339 344 348
297 309 309 309 315 318 321 320 321 322 321 315 321 325 327 335 339 349 351 1 1 349 328 307 301 314 321 327 337 342 342 342 349 356 357 333 302 305 314 326 331 334 340 345
298 301 307 310 310 314 318 320 315 316 318 316 326 323 327 338 342 357 8 2 4 349 321 322 328 333 337 341 343 343 345 340 344 349 340 316 311 316 327 330 332 334 337 340
296 296 306 316 313 313 318 318 313 311 316 319 326 327 340 340 345 347 1 3 349 347 333 332 334 338 342 343 343 342 338 334 334 330 318 324 322 323 327 330 331 331 333 333
307 306 314 319 320 321 318 313 328 319 322 321 328 329 332 345 340 342 351 344 340 336 333 333 338 339 338 337 336 336 332 327 322 324 319 314 317 319 326 329 330 331 331 332
307 303 313 317 320 319 318 329 318 323 321 322 325 333 354 10 9 351 349 348 340 334 331 332 333 334 335 336 335 330 330 329 328 322 320 318 317 321 324 327 328 329 330 330
317 311 311 318 316 318 320 315 316 320 326 256 242 232 340 10 2 343 343 342 335 331 328 330 331 333 331 330 330 331 329 327 325 322 321 321 320 321 323 325 328 327 329 330
319 320 309 307 306 308 310 313 322 264 250 257 257 236 327 5 2 343 344 339 333 327 325 327 325 321 326 329 329 326 324 323 323 323 324 324 326 326 325 324 325 327 325 326
310 299 263 276 296 310 309 314 312 305 298 212 294 251 317 328 326 327 333 327 323 322 323 326 322 320 326 325 324 324 325 325 327 328 327 327 327 326 326 326 327 328 326 324
318 302 267 240 276 304 297 305 313 312 306 297 250 276 316 318 310 318 321 324 324 321 322 324 322 325 326 326 326 326 326 327 328 329 329 329 329 329 329 328 327 326 324 323
313 286 293 280 278 278 248 235 288 249 281 283 291 288 308 305 304 310 318 321 320 320 320 321 322 325 326 325 326 327 327 328 329 329 329 329 331 331 330 328 328 326 324 322
310 297 301 292 298 300 286 301 299 286 287 279 262 259 305 307 302 304 311 318 319 322 322 323 323 326 326 327 327 328 327 328 329 330 330 332 332 332 331 331 330 328 327 324
310 305 305 301 309 301 290 299 307 308 307 302 302 310 312 318 316 317 318 321 323 323 322 322 322 324 326 326 327 326 328 330 331 332 333 333 333 333 333 332 331 329 327 326
307 307 308 303 307 304 316 320 313 308 309 303 307 311 315 316 316 319 321 322 322 323 323 323 324 325 326 328 328 328 329 330 330 331 331 332 333 333 333 333 332 332 331 329
304 304 306 306 305 303 310 321 319 314 312 316 308 309 315 321 321 318 321 323 322 323 324 325 327 327 328 329 329 329 328 329 329 330 330 332 332 332 333 334 334 334 333 332
309 303 300 306 303 303 316 324 329 322 306 321 321 319 315 317 307 313 318 321 321 323 324 325 326 328 328 328 329 328 328 328 329 329 329 329 329 330 330 331 332 333 333 332
310 306 296 299 302 305 314 317 323 309 311 323 324 319 314 311 312 316 317 317 319 321 321 323 324 323 325 327 328 327 327 326 329 330 330 330 330 329 329 329 330 330 331 332
307 306 305 305 303 302 320 318 309 315 320 317 315 313 312 311 312 312 313 314 315 316 318 319 319 319 323 326 326 323 322 326 327 328 328 329 329 330 329 329 328 329 328 328
301 303 304 300 304 315 317 315 317 318 316 316 315 314 312 311 311 312 313 315 315 315 316 316 316 316 319 322 323 320 322 324 324 325 325 326 327 328 329 327 327 326 326 325
305 308 300 303 307 306 307 306 313 314 313 313 311 309 308 308 310 311 313 314 315 316 316 317 316 316 316 318 321 320 323 324 323 321 322 324 324 325 327 327 327 325 325 324
303 309 306 300 304 305 304 305 307 310 312 313 312 311 310 312 312 314 314 316 317 317 318 319 318 318 318 320 321 322 324 324 322 322 322 322 322 322 322 322 322 322 322 322
302 300 297 296 303 302 303 308 309 308 309 310 310 310 312 314 314 316 316 318 319 319 320 319 320 320 319 319 319 320 322 322 320 319 320 320 319 319 319 319 317 319 319 318